This is the latest recevied weather packets stored in our database for station/object EB2EMZ-14. If no packets are shown the sender has not sent any weather packets the latest 1 day(s).
| Time | Temp. | Humidity | Pressure | Rain* | Wind** | Luminosity | Snow |
|---|---|---|---|---|---|---|---|
| 1778104211 | 4.44° C | 87% | 1012.9 hPa | 0 mm | - | 0 W/m² | - |
| 1778103611 | 5° C | 87% | 1012.9 hPa | 0 mm | - | 0 W/m² | - |
| 1778101512 | 5.56° C | 86% | 1013 hPa | 0 mm | - | 0 W/m² | - |
| 1778099711 | 6.11° C | 85% | 1012.9 hPa | 0 mm | - | 0 W/m² | - |
| 1778099112 | 6.67° C | 85% | 1012.9 hPa | 0 mm | - | 0 W/m² | - |
| 1778098811 | 6.67° C | 85% | 1012.9 hPa | 0 mm | - | 0 W/m² | - |
| 1778097911 | 7.22° C | 84% | 1012.7 hPa | 0 mm | - | 0 W/m² | - |
| 1778097311 | 7.22° C | 82% | 1012.6 hPa | 0 mm | - | 0 W/m² | - |
| 1778096711 | 7.78° C | 82% | 1012.6 hPa | 0 mm | - | 0 W/m² | - |
| 1778095211 | 8.33° C | 80% | 1012.2 hPa | 0 mm | - | 0 W/m² | - |
| 1778094011 | 9.44° C | 78% | 1012.3 hPa | 0 mm | - | 0 W/m² | - |
| 1778093414 | 10° C | 77% | 1012.2 hPa | 0 mm | - | 0 W/m² | - |
| 1778091311 | 11.11° C | 73% | 1011.8 hPa | 0 mm | - | 0 W/m² | - |
| 1778090411 | 11.67° C | 73% | 1012 hPa | 0 mm | - | 0 W/m² | - |
| 1778090111 | 11.67° C | 72% | 1011.9 hPa | 0 mm | - | 0 W/m² | - |
| 1778089811 | 11.67° C | 72% | 1012 hPa | 0 mm | - | 0 W/m² | - |
| 1778089511 | 11.67° C | 71% | 1012 hPa | 0 mm | - | 0 W/m² | - |
| 1778088610 | 11.67° C | 70% | 1012 hPa | 0 mm | - | 0 W/m² | - |
| 1778087114 | 13.33° C | 66% | 1012.1 hPa | 0 mm | - | 0 W/m² | - |
| 1778086810 | 13.89° C | 65% | 1012.1 hPa | 0 mm | - | 0 W/m² | - |
| 1778085910 | 14.44° C | 66% | 1012.1 hPa | 0 mm | - | 0 W/m² | - |
| 1778085311 | 14.44° C | 66% | 1011.9 hPa | 0 mm | - | 0 W/m² | - |
| 1778085011 | 15° C | 65% | 1012.1 hPa | 0 mm | - | 0 W/m² | - |
| 1778084111 | 15.56° C | 63% | 1012 hPa | 0 mm | - | 0 W/m² | - |
| 1778083812 | 15.56° C | 62% | 1012 hPa | 0 mm | - | 0 W/m² | - |
* Rain latest hour (hover to see other rain measurements)
** Current wind speed in m/s (hover to see current wind gust speed)